Canadian, TX

11:13 PM CDT on May 27, 2017 (GMT -0500)
Hemphill County

Weather History for KHHF - November, 2011

Change the Weather History Date:

Friday, November 18, 2011

  Actual Average (KPPA) Record (KPPA)
Temperature  
Mean Temperature 55 °F -  
Max Temperature 69 °F 59 °F 75 °F (1973)
Min Temperature 41 °F 32 °F 19 °F (1980)
Degree Days  
Heating Degree Days 10    
Growing Degree Days 5 (Base 50)    
Moisture  
Dew Point 34 °F    
Average Humidity 50    
Maximum Humidity 70    
Minimum Humidity 27    
Precipitation  
Precipitation 0.00 in - - ()
Sea Level Pressure  
Sea Level Pressure 29.77 in    
Wind  
Wind Speed 20 mph (SSW)    
Max Wind Speed 29 mph    
Max Gust Speed 37 mph    
Visibility 10 miles    
Events      
Averages and records for this station are not official NWS values.
T = Trace of Precipitation, MM = Missing Value Source: NWS Daily Summary

Daily Weather History Graph

Daily Weather History Graph

Search for Another Location

Airport or City:

Trip Planner

Search our weather history database for the weather conditions in past years. The results will help you decide how hot, cold, wet, or windy it might be!

Date:

Astronomy

Nov. 18, 2011 Rise Set
Actual Time 7:20 AM CST 5:32 PM CST
Civil Twilight 6:53 AM CST 5:59 PM CST
Nautical Twilight 6:22 AM CST 6:30 PM CST
Astronomical Twilight 5:51 AM CST 7:01 PM CST
Moon No Moon Rise 1:06 PM CST (11/18)
Length of Visible Light 11h 06m
Length of Day
10h 11m
Waning Gibbous, 49% of the Moon is Illuminated
Nov 18
Waning Gibbous
Nov 25
New
Dec 2
First Quarter
Dec 10
Full
Dec 17
Last Quarter

Hourly Weather History & Observations

Time (CST) Temp. Windchill Dew Point Humidity Pressure Visibility Wind Dir Wind Speed Gust Speed Precip Events Conditions
12:15 AM 44.6 °F 34.9 °F 26.6 °F 49% 29.95 in 10.0 mi South 28.8 mph 33.4 mph N/A   Clear
12:35 AM 44.6 °F 35.7 °F 26.6 °F 49% 29.95 in 10.0 mi South 24.2 mph 33.4 mph N/A   Clear
12:55 AM 42.8 °F 33.5 °F 26.6 °F 53% 29.95 in 10.0 mi South 23.0 mph 33.4 mph N/A   Clear
1:15 AM 42.8 °F 33.8 °F 26.6 °F 53% 29.94 in 10.0 mi South 21.9 mph 32.2 mph N/A   Clear
1:35 AM 42.8 °F 33.3 °F 26.6 °F 53% 29.93 in 10.0 mi SSW 24.2 mph 31.1 mph N/A   Clear
1:55 AM 42.8 °F 33.8 °F 26.6 °F 53% 29.93 in 10.0 mi SSW 21.9 mph 28.8 mph N/A   Clear
2:15 AM 42.8 °F 35.1 °F 26.6 °F 53% 29.93 in 10.0 mi SSW 16.1 mph - N/A   Clear
2:35 AM 42.8 °F 35.1 °F 28.4 °F 57% 29.93 in 10.0 mi SSW 16.1 mph 21.9 mph N/A   Clear
3:15 AM 42.8 °F 35.4 °F 28.4 °F 57% 29.93 in 10.0 mi SSW 15.0 mph 20.7 mph N/A   Clear
3:35 AM 42.8 °F 35.8 °F 28.4 °F 57% 29.92 in 10.0 mi South 13.8 mph - N/A   Clear
3:55 AM 42.8 °F 36.6 °F 30.2 °F 61% 29.91 in 10.0 mi SSW 11.5 mph - N/A   Clear
4:15 AM 41.0 °F 36.4 °F 30.2 °F 65% 29.90 in 10.0 mi SSW 6.9 mph - N/A   Clear
4:35 AM 42.8 °F 37.0 °F 30.2 °F 61% 29.88 in 10.0 mi SSW 10.4 mph 19.6 mph N/A   Clear
4:55 AM 42.8 °F 36.6 °F 30.2 °F 61% 29.88 in 10.0 mi SW 11.5 mph 19.6 mph N/A   Clear
5:15 AM 41.0 °F 34.3 °F 32.0 °F 70% 29.88 in 10.0 mi SW 11.5 mph - N/A   Clear
5:35 AM 41.0 °F 34.7 °F 32.0 °F 70% 29.88 in 10.0 mi SSW 10.4 mph - N/A   Clear
6:15 AM 42.8 °F 38.0 °F 32.0 °F 66% 29.88 in 10.0 mi SW 8.1 mph - N/A   Clear
6:35 AM 41.0 °F 34.7 °F 32.0 °F 70% 29.87 in 10.0 mi SSW 10.4 mph - N/A   Clear
6:55 AM 41.0 °F 37.1 °F 32.0 °F 70% 29.86 in 10.0 mi SSW 5.8 mph - N/A   Clear
7:35 AM 41.0 °F 34.7 °F 32.0 °F 70% 29.86 in 10.0 mi SW 10.4 mph 16.1 mph N/A   Clear
7:55 AM 41.0 °F 33.9 °F 32.0 °F 70% 29.86 in 10.0 mi SSW 12.7 mph 18.4 mph N/A   Clear
8:15 AM 42.8 °F 34.3 °F 33.8 °F 70% 29.84 in 10.0 mi SSW 19.6 mph 25.3 mph N/A   Clear
8:35 AM 44.6 °F 36.6 °F 33.8 °F 66% 29.84 in 10.0 mi SSW 19.6 mph 27.6 mph N/A   Clear
8:55 AM 44.6 °F 36.9 °F 33.8 °F 66% 29.85 in 10.0 mi SSW 18.4 mph 26.5 mph N/A   Clear
9:35 AM 48.2 °F - 35.6 °F 62% 29.83 in 10.0 mi SSW 23.0 mph 27.6 mph N/A   Clear
10:15 AM 51.8 °F - 35.6 °F 54% 29.82 in 10.0 mi SSW 21.9 mph 26.5 mph N/A   Clear
10:35 AM 53.6 °F - 35.6 °F 51% 29.81 in 10.0 mi SSW 20.7 mph 29.9 mph N/A   Clear
10:55 AM 55.4 °F - 35.6 °F 47% 29.80 in 10.0 mi SSW 25.3 mph 32.2 mph N/A   Clear
11:15 AM 59.0 °F - 35.6 °F 42% 29.80 in 10.0 mi SSW 25.3 mph 31.1 mph N/A   Clear
11:35 AM 60.8 °F - 35.6 °F 39% 29.80 in 10.0 mi SSW 21.9 mph 26.5 mph N/A   Clear
11:55 AM 60.8 °F - 35.6 °F 39% 29.78 in 10.0 mi SSW 24.2 mph 31.1 mph N/A   Clear
12:15 PM 62.6 °F - 33.8 °F 34% 29.76 in 10.0 mi SSW 24.2 mph 34.5 mph N/A   Clear
12:35 PM 62.6 °F - 33.8 °F 34% 29.75 in 10.0 mi SSW 23.0 mph 32.2 mph N/A   Clear
12:55 PM 64.4 °F - 33.8 °F 32% 29.73 in 10.0 mi SSW 24.2 mph 29.9 mph N/A   Clear
1:35 PM 68.0 °F - 33.8 °F 28% 29.70 in 10.0 mi SSW 23.0 mph 36.8 mph N/A   Clear
1:55 PM 68.0 °F - 35.6 °F 30% 29.69 in 10.0 mi SSW 23.0 mph 31.1 mph N/A   Clear
2:15 PM 69.8 °F - 33.8 °F 27% 29.68 in 10.0 mi SSW 26.5 mph 29.9 mph N/A   Clear
2:35 PM 69.8 °F - 35.6 °F 28% 29.68 in 10.0 mi SSW 24.2 mph 28.8 mph N/A   Clear
3:15 PM 69.8 °F - 35.6 °F 28% 29.66 in 10.0 mi SSW 23.0 mph 28.8 mph N/A   Clear
3:55 PM 69.8 °F - 35.6 °F 28% 29.64 in 10.0 mi South 24.2 mph 29.9 mph N/A   Clear
4:15 PM 69.8 °F - 33.8 °F 27% 29.63 in 10.0 mi South 23.0 mph 31.1 mph N/A   Clear
4:35 PM 69.8 °F - 33.8 °F 27% 29.63 in 10.0 mi SSW 21.9 mph 26.5 mph N/A   Clear
4:55 PM 69.8 °F - 33.8 °F 27% 29.63 in 10.0 mi South 21.9 mph 27.6 mph N/A   Clear
5:15 PM 68.0 °F - 33.8 °F 28% 29.63 in 10.0 mi South 18.4 mph 26.5 mph N/A   Clear
5:55 PM 64.4 °F - 33.8 °F 32% 29.63 in 10.0 mi South 20.7 mph 24.2 mph N/A   Clear
6:15 PM 64.4 °F - 35.6 °F 34% 29.63 in 10.0 mi South 20.7 mph 27.6 mph N/A   Clear
6:35 PM 62.6 °F - 35.6 °F 37% 29.63 in 10.0 mi South 19.6 mph - N/A   Clear
6:55 PM 62.6 °F - 35.6 °F 37% 29.63 in 10.0 mi South 23.0 mph 28.8 mph N/A   Clear
7:15 PM 62.6 °F - 35.6 °F 37% 29.63 in 10.0 mi South 21.9 mph 27.6 mph N/A   Clear
7:55 PM 59.0 °F - 37.4 °F 45% 29.63 in 10.0 mi South 20.7 mph 26.5 mph N/A   Clear
8:15 PM 59.0 °F - 39.2 °F 48% 29.63 in 10.0 mi South 23.0 mph 28.8 mph N/A   Clear
8:35 PM 59.0 °F - 41.0 °F 51% 29.63 in 10.0 mi South 24.2 mph 27.6 mph N/A   Clear
8:55 PM 59.0 °F - 41.0 °F 51% 29.63 in 10.0 mi South 21.9 mph 31.1 mph N/A   Clear
9:15 PM 57.2 °F - 41.0 °F 55% 29.63 in 10.0 mi South 20.7 mph 27.6 mph N/A   Clear
9:55 PM 59.0 °F - 42.8 °F 55% 29.62 in 10.0 mi South 24.2 mph 33.4 mph N/A   Clear
10:15 PM 57.2 °F - 42.8 °F 59% 29.63 in 10.0 mi South 19.6 mph 26.5 mph N/A   Clear
10:35 PM 55.4 °F - 42.8 °F 63% 29.63 in 10.0 mi SW 15.0 mph 24.2 mph N/A   Clear
10:55 PM 55.4 °F - 44.6 °F 67% 29.62 in 10.0 mi South 24.2 mph 33.4 mph N/A   Clear
11:35 PM 55.4 °F - 44.6 °F 67% 29.62 in 10.0 mi SSW 24.2 mph 29.9 mph N/A   Clear
11:55 PM 55.4 °F - 44.6 °F 67% 29.62 in 10.0 mi SSW 19.6 mph 28.8 mph N/A   Clear